Stations météo

Publicité
Leutkirch-Herlazhofen, Allemagne (10945): Température de l'air & dewpoint: 12.09.2018 17:00:00 - 18.09.2018 17:00:00 (CEST)Leutkirch-Herlazhofen, Allemagne (10945): Température de l'air 5cm & Température de l'air -5cm: 12.09.2018 17:00:00 - 18.09.2018 17:00:00 (CEST)Leutkirch-Herlazhofen, Allemagne (10945): Température de l'air -20cm & Température de l'air -100cm: 12.09.2018 17:00:00 - 18.09.2018 17:00:00 (CEST)Leutkirch-Herlazhofen, Allemagne (10945): Vitesse du vent & gusts: 12.09.2018 17:00:00 - 18.09.2018 17:00:00 (CEST)Leutkirch-Herlazhofen, Allemagne (10945): Direction du vent: 12.09.2018 17:00:00 - 18.09.2018 17:00:00 (CEST)Leutkirch-Herlazhofen, Allemagne (10945): reduced air pressure: 12.09.2018 17:00:00 - 18.09.2018 17:00:00 (CEST)Leutkirch-Herlazhofen, Allemagne (10945): visibility: 12.09.2018 17:00:00 - 18.09.2018 17:00:00 (CEST)Leutkirch-Herlazhofen, Allemagne (10945): Ensoleillement: 12.09.2018 17:00:00 - 18.09.2018 17:00:00 (CEST)Leutkirch-Herlazhofen, Allemagne (10945): Quantités de précipitations: 12.09.2018 17:00:00 - 18.09.2018 17:00:00 (CEST)
Date & Time tt [°C] td [°C] tt 5cm [°C] tt -5cm [°C] tt -20cm [°C] tt -100cm [°C] ff [km/h] ff [knt] fx [km/h] fx [knt] dd ppp [hPa] vv [km] sd [min] rr [mm]
18.09.2018 17:00:00 21,7 14,7 21,9 22,5 18,7 17,1 8 4 16 9 S 1016,4 50 4 0,0
18.09.2018 16:00:00 21,4 15,0 21,5 23,1 18,3 17,1 10 6 29 16 WSW 1016,8 41 17 0,0
18.09.2018 15:00:00 23,5 14,5 26,5 23,6 17,9 17,1 21 11 34 18 WSW 1016,4 24 55 0,0
18.09.2018 14:00:00 22,6 14,2 24,2 22,8 17,4 17,1 18 10 26 14 WSW 1017,0 21 58 0,0
18.09.2018 13:00:00 22,6 14,0 25,0 22,0 17,0 17,1 13 7 21 11 SW 1017,2 46 60 0,0
18.09.2018 12:00:00 21,9 13,7 24,4 20,2 16,7 17,1 15 8 27 15 WSW 1017,5 26 60 0,0
18.09.2018 11:00:00 21,4 13,7 23,5 18,6 16,5 17,1 10 5 16 9 SW 1017,6 35 60 0,0
18.09.2018 10:00:00 19,3 14,3 20,2 15,8 16,5 17,1 8 4 10 5 SSE 1017,9 22 47 0,0
18.09.2018 09:00:00 15,9 12,8 15,5 13,9 16,6 17,1 4 2 5 3 SE 1018,8 23 60 0,0
18.09.2018 08:00:00 12,7 11,5 11,8 12,7 16,9 17,1 4 2 9 5 SSE 1019,4 17 29 0,0
18.09.2018 07:00:00 11,6 11,0 8,8 12,8 17,1 17,1 6 4 8 4 SE 1019,5 15 0 0,0
18.09.2018 06:00:00 10,9 10,8 8,0 13,1 17,4 17,1 4 2 6 3 SE 1019,3 3,9 0 0,0
18.09.2018 05:00:00 11,0 10,8 8,0 13,5 17,7 17,1 3 2 5 3 S 1019,2 8 0 0,0
18.09.2018 04:00:00 12,1 11,8 9,2 13,9 18,0 17,1 4 2 9 5 S 1018,8 10 0 0,0
18.09.2018 03:00:00 10,8 10,2 8,5 14,3 18,3 17,1 5 3 8 4 SE 1019,1 5 0 0,0
18.09.2018 02:00:00 11,5 11,2 8,7 14,8 18,6 17,1 0 0 6 4 N 1019,1 7 0 0,0
18.09.2018 01:00:00 11,5 11,1 9,6 15,4 18,9 17,1 6 3 8 4 E 1019,3 5 0 0,0
18.09.2018 00:00:00 12,4 11,7 10,2 16,1 19,2 17,1 2 1 5 3 S 1019,1 16 0 0,0
17.09.2018 23:00:00 13,1 12,7 10,4 16,9 19,5 17,1 0 0 4 2 N 1019,1 4,6 0 0,0
17.09.2018 22:00:00 13,6 13,0 11,1 17,9 19,7 17,1 0 0 4 2 N 1019,4 13 0 0,0
17.09.2018 21:00:00 15,1 13,3 12,1 19,1 19,9 17,1 3 1 4 2 S 1019,0 28 0 0,0
17.09.2018 20:00:00 16,9 13,6 14,2 20,8 19,9 17,1 3 2 5 3 S 1018,2 37 21 0,0
17.09.2018 19:00:00 22,3 12,1 21,1 22,5 19,7 17,1 4 2 9 5 E 1016,7 57 60 0,0
17.09.2018 18:00:00 24,0 10,7 26,3 23,8 19,5 17,1 0 0 6 3 N 1016,5 70 60 0,0
17.09.2018 17:00:00 23,6 11,1 26,2 24,7 19,1 17,1 4 2 9 5 WNW 1017,2 48 60 0,0
17.09.2018 16:00:00 23,4 11,8 26,3 24,9 18,6 17,1 7 4 13 7 WNW 1017,8 25 60 0,0
17.09.2018 15:00:00 23,0 11,0 26,0 24,8 18,1 17,1 6 3 20 11 NW 1018,3 35 60 0,0
17.09.2018 14:00:00 22,5 11,2 25,2 24,0 17,5 17,1 7 4 16 9 NW 1019,0 17 60 0,0
17.09.2018 13:00:00 21,8 12,1 25,4 22,6 17,1 17,1 8 4 14 8 WSW 1019,4 23 60 0,0
17.09.2018 12:00:00 20,6 13,4 23,6 20,7 16,7 17,1 9 5 18 10 WSW 1020,3 14 60 0,0
17.09.2018 11:00:00 19,3 14,2 21,9 18,6 16,6 17,1 13 7 17 9 WSW 1021,0 28 60 0,0
17.09.2018 10:00:00 18,1 13,6 18,9 16,1 16,6 17,1 7 4 10 5 S 1021,5 21 60 0,0
17.09.2018 09:00:00 14,5 12,0 14,4 13,7 16,8 17,1 4 2 10 5 S 1022,8 26 45 0,0
17.09.2018 08:00:00 11,4 10,3 10,1 13,0 17,0 17,1 6 3 10 5 S 1023,5 20 0 0,0
17.09.2018 07:00:00 11,5 11,1 9,9 13,1 17,3 17,1 5 3 10 5 SSE 1023,3 19 0 0,0
17.09.2018 06:00:00 10,4 9,9 8,2 13,6 17,5 17,1 0 0 7 4 N 1023,1 10 0 0,0
17.09.2018 05:00:00 11,6 11,1 9,3 14,1 17,8 17,1 3 1 8 5 SE 1022,5 14 0 0,0
17.09.2018 04:00:00 11,9 11,4 9,4 14,6 18,1 17,1 3 2 6 4 S 1022,5 10 0 0,0
17.09.2018 03:00:00 12,4 12,2 10,2 15,1 18,3 17,1 0 0 8 4 N 1022,5 1,9 0 0,0
17.09.2018 02:00:00 13,0 13,0 10,1 15,8 18,6 17,1 3 2 4 2 SSE 1022,6 0,6 0 0,0
17.09.2018 01:00:00 13,6 13,2 10,8 16,4 18,8 17,1 3 1 8 4 S 1022,4 0,2 0 0,0
17.09.2018 00:00:00 14,3 13,2 12,0 17,2 19,0 17,1 5 3 7 4 SE 1022,2 4,9 0 0,0
16.09.2018 23:00:00 15,3 14,3 13,6 18,1 19,2 17,1 4 2 9 5 WSW 1022,0 6 0 0,0
16.09.2018 22:00:00 16,8 15,1 15,6 18,9 19,3 17,1 8 4 16 8 SSE 1021,3 11 0 0,0
16.09.2018 21:00:00 17,7 15,9 16,7 19,7 19,4 17,1 13 7 16 8 SSE 1021,0 11 0 0,4
16.09.2018 20:00:00 18,5 15,9 17,4 20,6 19,3 17,1 3 2 7 4 NW 1020,3 6 0 0,0
16.09.2018 19:00:00 20,0 16,6 19,2 21,8 19,2 17,2 5 3 11 6 WSW 1019,3 22 0 0,0
16.09.2018 18:00:00 21,6 14,2 21,4 22,7 18,9 17,2 4 2 9 5 W 1018,8 59 10 0,0
16.09.2018 17:00:00 22,3 13,6 23,6 23,8 18,5 17,2 4 2 9 5 W 1018,7 61 43 0,0
16.09.2018 16:00:00 22,2 13,2 25,0 24,6 18,0 17,2 6 3 10 5 S 1019,1 44 60 0,0
16.09.2018 15:00:00 21,5 13,7 24,7 24,5 17,4 17,2 6 3 11 6 ESE 1019,6 31 60 0,0
16.09.2018 14:00:00 21,6 14,2 25,6 23,6 16,8 17,2 3 2 9 5 NW 1020,2 31 60 0,0
16.09.2018 13:00:00 20,5 14,2 24,1 21,7 16,4 17,1 4 2 15 8 NNE 1020,6 28 60 0,0
16.09.2018 12:00:00 18,3 13,2 22,6 19,8 16,0 17,1 10 6 16 9 NE 1021,5 27 60 0,0
16.09.2018 11:00:00 16,6 12,2 20,1 17,3 15,8 17,1 4 2 13 7 N 1022,3 17 60 0,0
16.09.2018 10:00:00 13,8 11,7 16,2 14,7 15,8 17,1 10 5 19 10 NE 1023,2 13 60 0,0
16.09.2018 09:00:00 12,7 11,5 13,7 13,1 15,9 17,1 12 6 18 10 NNE 1023,2 8 41 0,0
16.09.2018 08:00:00 11,6 11,2 11,3 12,1 16,1 17,1 11 6 18 10 NE 1023,2 3,5 0 0,0
16.09.2018 07:00:00 10,1 9,9 8,5 11,8 16,4 17,1 6 4 13 7 NNE 1023,8 0,9 0 0,0
16.09.2018 06:00:00 10,1 9,7 8,4 11,7 16,6 17,1 10 5 13 7 N 1024,0 3,9 0 0,0
16.09.2018 05:00:00 9,9 9,4 7,4 12,0 16,9 17,1 5 3 9 5 N 1024,4 4,2 0 0,0
16.09.2018 04:00:00 9,4 8,9 7,1 12,3 17,3 17,1 5 3 9 5 NNW 1025,0 6 0 0,0
16.09.2018 03:00:00 10,2 8,7 7,4 12,8 17,6 17,1 6 3 11 6 N 1025,2 11 0 0,0
16.09.2018 02:00:00 11,1 9,1 8,1 13,1 17,9 17,1 4 2 8 4 NNE 1025,5 13 0 0,0
16.09.2018 01:00:00 9,5 9,4 6,2 13,7 18,3 17,1 2 1 7 4 NW 1026,0 6 0 0,0
16.09.2018 00:00:00 10,0 9,7 7,4 14,4 18,6 17,1 0 0 3 2 N 1025,9 4,1 0 0,0
15.09.2018 23:00:00 9,7 9,3 7,6 15,2 18,9 17,1 2 1 6 3 SE 1026,2 3,9 0 0,0
15.09.2018 22:00:00 10,9 10,1 9,2 16,2 19,2 17,1 2 1 7 4 WNW 1026,1 9 0 0,0
15.09.2018 21:00:00 12,1 10,8 10,3 17,4 19,4 17,1 5 3 7 4 SSE 1025,3 12 0 0,0
15.09.2018 20:00:00 14,5 11,2 11,4 18,9 19,5 17,1 5 3 7 4 ENE 1024,1 17 19 0,0
15.09.2018 19:00:00 17,5 11,2 17,2 20,4 19,5 17,1 6 3 11 6 NNE 1022,7 33 60 0,0
15.09.2018 18:00:00 18,4 11,3 20,5 21,4 19,4 17,1 7 4 16 9 NE 1022,2 28 45 0,0
15.09.2018 17:00:00 18,5 11,0 19,8 22,2 19,2 17,1 5 3 10 5 NE 1022,2 30 8 0,0
15.09.2018 16:00:00 18,6 10,2 20,2 23,4 18,8 17,1 5 3 16 9 N 1022,4 25 26 0,0
15.09.2018 15:00:00 19,1 11,4 24,2 23,7 18,4 17,1 7 4 16 9 N 1022,3 20 42 0,0
15.09.2018 14:00:00 18,1 10,1 22,0 23,5 17,9 17,1 6 4 17 9 WNW 1023,0 13 57 0,0
15.09.2018 13:00:00 18,1 10,4 24,0 22,5 17,6 17,1 6 3 14 7 NNW 1023,2 22 60 0,0
15.09.2018 12:00:00 16,8 10,0 21,0 20,1 17,4 17,1 6 3 16 9 ESE 1023,7 19 60 0,0
15.09.2018 11:00:00 15,8 11,3 19,3 17,5 17,3 17,1 7 4 14 7 N 1024,1 15 9 0,0
15.09.2018 10:00:00 14,7 11,0 15,8 16,3 17,4 17,1 7 4 13 7 NNW 1024,1 9 0 0,0
15.09.2018 09:00:00 14,3 12,5 14,5 15,8 17,5 17,1 6 4 11 6 NW 1023,7 7 0 0,0
15.09.2018 08:00:00 14,3 12,9 13,8 15,6 17,6 17,1 3 2 12 6 WNW 1023,1 6 0 0,0
15.09.2018 07:00:00 13,9 13,3 13,7 15,6 17,7 17,1 4 2 7 4 WNW 1022,4 3,6 0 0,0
15.09.2018 06:00:00 13,3 12,9 12,7 15,6 17,9 17,1 0 0 6 3 N 1022,0 4,5 0 0,0
15.09.2018 05:00:00 13,6 13,0 13,4 15,8 18,0 17,1 3 1 4 2 NNW 1021,6 6 0 0,0
15.09.2018 04:00:00 13,4 13,0 13,3 15,7 18,2 17,1 2 1 5 3 N 1021,5 7 0 0,0
15.09.2018 03:00:00 13,5 13,0 13,1 15,8 18,4 17,1 6 3 8 5 SSE 1021,1 11 0 0,0
15.09.2018 02:00:00 13,7 12,9 12,4 16,1 18,7 17,1 3 2 9 5 SSE 1021,1 17 0 0,0
15.09.2018 01:00:00 13,3 12,7 12,8 16,5 18,9 17,1 7 4 9 5 S 1021,1 8 0 0,0
15.09.2018 00:00:00 14,3 13,3 13,5 17,1 19,1 17,1 5 3 20 11 WSW 1020,7 14 0 0,0
14.09.2018 23:00:00 15,0 13,5 13,4 17,6 19,3 17,1 3 2 10 5 SE 1020,1 26 0 0,0
14.09.2018 22:00:00 15,4 13,7 14,7 18,3 19,5 17,1 6 4 11 6 ESE 1020,0 26 0 0,0
14.09.2018 21:00:00 15,4 13,9 14,7 18,8 19,6 17,1 3 2 5 3 ESE 1019,7 18 0 0,0
14.09.2018 20:00:00 15,7 13,9 14,7 19,8 19,6 17,1 0 0 7 4 N 1019,1 14 2 0,0
14.09.2018 19:00:00 17,9 13,2 17,6 21,2 19,6 17,1 5 3 9 5 ENE 1018,2 39 20 0,0
14.09.2018 18:00:00 19,0 12,9 19,9 22,1 19,4 17,1 6 3 14 7 NNE 1017,9 44 42 0,0
14.09.2018 17:00:00 19,6 12,2 22,9 22,9 19,2 17,0 7 4 15 8 NE 1017,8 36 47 0,0
14.09.2018 16:00:00 19,2 13,3 23,1 23,4 18,8 17,0 9 5 16 9 NNE 1018,0 21 40 0,0
14.09.2018 15:00:00 19,2 13,3 23,4 23,2 18,4 17,0 9 5 20 11 N 1018,4 15 47 0,0
14.09.2018 14:00:00 17,9 13,3 19,3 22,9 18,0 17,0 8 4 14 8 N 1019,0 54 22 0,0
14.09.2018 13:00:00 18,9 12,7 23,5 22,3 17,6 17,0 6 3 13 7 E 1019,0 28 52 0,0
14.09.2018 12:00:00 18,2 14,0 21,9 20,0 17,4 17,0 6 3 13 7 ENE 1019,3 35 34 0,0
14.09.2018 11:00:00 16,5 13,6 20,3 18,5 17,3 17,0 7 4 13 7 NNE 1019,6 31 29 0,0
14.09.2018 10:00:00 14,8 13,3 16,3 16,7 17,4 17,0 6 3 9 5 NNE 1019,9 14 0 0,0
14.09.2018 09:00:00 13,8 12,7 14,7 15,7 17,5 17,0 3 2 5 3 N 1020,0 11 0 0,0
14.09.2018 08:00:00 13,1 12,5 13,3 15,3 17,6 17,0 4 2 6 4 NW 1019,7 9 0 0,0
14.09.2018 07:00:00 13,0 12,4 12,3 15,5 17,7 17,0 3 2 8 4 NW 1019,5 11 0 0,0
14.09.2018 06:00:00 13,3 12,7 13,2 15,6 17,9 17,0 5 3 9 5 ENE 1019,3 13 0 0,1
14.09.2018 05:00:00 13,3 12,6 13,2 15,7 18,1 17,0 3 2 9 5 ENE 1019,3 14 0 0,0
14.09.2018 04:00:00 13,2 12,8 13,1 15,8 18,3 17,0 7 4 10 5 NW 1019,6 12 0 0,3
14.09.2018 03:00:00 13,1 12,5 12,8 15,8 18,5 17,0 4 2 11 6 E 1019,5 17 0 4,0
14.09.2018 02:00:00 13,3 12,8 13,2 16,3 18,9 17,0 6 4 16 9 SSE 1019,9 3,7 0 5,3
14.09.2018 01:00:00 13,4 12,4 13,3 16,9 19,1 17,0 4 2 17 9 NNE 1020,0 8 0 2,8
14.09.2018 00:00:00 14,0 13,1 13,8 17,6 19,3 17,0 12 6 23 12 NW 1019,8 4,7 0 2,3
13.09.2018 23:00:00 15,4 14,2 15,0 18,1 19,6 17,0 3 1 12 7 NNW 1018,9 3,7 0 1,4
13.09.2018 22:00:00 16,2 14,9 15,6 18,4 19,8 17,0 4 2 13 7 NW 1018,5 14 0 0,0
13.09.2018 21:00:00 14,8 14,3 14,1 19,0 20,0 17,0 5 3 6 4 ESE 1018,1 8 0 0,0
13.09.2018 20:00:00 16,3 14,9 15,5 20,0 20,1 17,0 5 3 9 5 NW 1017,5 21 0 0,0
13.09.2018 19:00:00 17,3 14,2 16,4 21,2 20,2 17,0 4 2 11 6 NNW 1016,6 49 6 0,0
13.09.2018 18:00:00 18,1 15,1 18,5 21,9 20,1 17,0 7 4 40 22 E 1016,2 32 27 10,0
13.09.2018 17:00:00 20,8 12,8 20,9 25,1 19,7 17,0 14 8 30 16 NNE 1015,4 34 11 0,0
13.09.2018 16:00:00 23,8 13,4 27,1 26,9 19,1 17,0 9 5 13 7 NNW 1014,2 27 59 0,0
13.09.2018 15:00:00 24,1 13,2 28,1 25,4 18,7 17,0 5 3 17 9 SSW 1014,8 29 60 0,0
13.09.2018 14:00:00 23,1 13,4 25,1 24,2 18,2 17,0 8 4 17 9 WSW 1015,8 70 58 0,0
13.09.2018 13:00:00 22,7 12,7 26,6 22,9 17,8 17,0 9 5 19 10 WSW 1016,6 24 60 0,0
13.09.2018 12:00:00 20,9 14,3 23,2 21,6 17,5 17,0 11 6 17 9 W 1017,3 39 59 0,0
13.09.2018 11:00:00 19,7 13,8 20,6 19,9 17,4 17,0 9 5 13 7 WSW 1017,8 47 42 0,0
13.09.2018 10:00:00 19,2 14,3 21,1 18,2 17,3 17,0 7 4 11 6 S 1017,8 31 60 0,0
13.09.2018 09:00:00 17,0 14,2 17,7 15,9 17,4 17,0 4 2 6 3 S 1018,1 20 35 0,0
13.09.2018 08:00:00 13,9 13,6 13,5 15,5 17,5 17,0 6 3 8 4 ESE 1019,1 3,7 0 0,0
13.09.2018 07:00:00 14,1 13,6 13,2 15,8 17,7 17,0 4 2 10 5 ESE 1019,0 4,2 0 0,0
13.09.2018 06:00:00 14,7 13,9 14,0 15,9 17,8 17,0 5 3 7 4 E 1018,9 9 0 1,0
13.09.2018 05:00:00 14,7 13,9 14,0 15,9 18,0 17,0 3 2 13 7 ENE 1019,9 8 0 0,7
13.09.2018 04:00:00 15,8 13,5 14,4 15,8 18,2 17,0 10 5 26 14 SW 1020,4 10 0 0,1
13.09.2018 03:00:00 16,4 11,3 15,3 15,5 18,5 17,0 22 12 39 21 SW 1020,2 44 0 0,0
13.09.2018 02:00:00 12,2 9,6 10,4 15,7 18,8 17,0 6 3 12 6 SSW 1020,5 48 0 0,0
13.09.2018 01:00:00 12,7 10,4 11,6 16,3 19,1 17,0 8 4 23 12 WNW 1020,7 48 0 0,0
13.09.2018 00:00:00 12,7 10,4 10,9 16,9 19,4 17,0 5 3 8 4 SSE 1020,6 38 0 0,0
12.09.2018 23:00:00 14,1 10,8 12,3 17,8 19,6 17,0 8 4 13 7 E 1020,0 49 0 0,0
12.09.2018 22:00:00 15,4 11,0 12,3 18,8 19,9 17,0 5 3 10 5 SSE 1020,1 65 0 0,0
12.09.2018 21:00:00 16,6 11,8 13,4 20,2 20,0 17,0 5 3 9 5 SE 1019,9 59 0 0,0
12.09.2018 20:00:00 17,8 11,8 14,9 22,1 19,9 17,0 7 4 10 5 SSE 1019,3 16 15 0,0
12.09.2018 19:00:00 22,4 13,2 22,0 24,1 19,7 17,0 7 4 13 7 S 1018,0 70 60 0,0
12.09.2018 18:00:00 25,5 10,7 26,9 25,3 19,3 17,0 9 5 16 8 SSW 1017,8 61 60 0,0
12.09.2018 17:00:00 26,0 8,1 27,7 25,9 18,8 17,0 13 7 23 13 WSW 1018,4 24 60 0,0

tt = Température de l'air
td = dewpoint
tt 5cm = Température de l'air 5cm
tt -5cm = Température de l'air -5cm
tt -20cm = Température de l'air -20cm
tt -100cm = Température de l'air -100cm
ff = Vitesse du vent
fx = gusts
dd = Direction du vent
ppp = reduced air pressure
vv = visibility
sd = Ensoleillement
rr = Quantités de précipitations

stations d'obs. à proximité